Wetterdaten: Dienstag, 13.10.2015
Datum Zeit Temperatur Luftfeuchte Luftdruck Regen Wind Richtung Richtung Sonnenschein ET UV Solar Taupunkt Windchill Windben
13.10.2015 00:00 2,4 C 78 % 1016,8 hPa 0,0 l/m 0,1 km/h (0 Bft) O-NO 59 0 min 0,000 mm 0,0 UV-I 0 W/m -1,0 C 2,4 C 1,6 km/h (1 Bft)
13.10.2015 00:05 2,4 C 78 % 1016,8 hPa 0,0 l/m 0,2 km/h (0 Bft) O-NO 59 0 min 0,000 mm 0,0 UV-I 0 W/m -1,0 C 2,4 C 1,6 km/h (1 Bft)
13.10.2015 00:10 2,3 C 78 % 1016,9 hPa 0,0 l/m 0,0 km/h (0 Bft) O-NO 59 0 min 0,000 mm 0,0 UV-I 0 W/m -1,1 C 2,3 C 0,0 km/h (0 Bft)
13.10.2015 00:15 2,2 C 78 % 1016,9 hPa 0,0 l/m 0,0 km/h (0 Bft) O-NO 59 0 min 0,000 mm 0,0 UV-I 0 W/m -1,2 C 2,2 C 0,0 km/h (0 Bft)
13.10.2015 00:20 2,2 C 78 % 1016,9 hPa 0,0 l/m 0,0 km/h (0 Bft) O-NO 59 0 min 0,000 mm 0,0 UV-I 0 W/m -1,2 C 2,2 C 0,0 km/h (0 Bft)
13.10.2015 00:25 2,2 C 78 % 1016,9 hPa 0,0 l/m 0,0 km/h (0 Bft) O-NO 59 0 min 0,000 mm 0,0 UV-I 0 W/m -1,2 C 2,2 C 0,0 km/h (0 Bft)
13.10.2015 00:30 2,2 C 78 % 1016,9 hPa 0,0 l/m 0,0 km/h (0 Bft) O-NO 59 0 min 0,000 mm 0,0 UV-I 0 W/m -1,2 C 2,2 C 0,0 km/h (0 Bft)
13.10.2015 00:35 2,0 C 78 % 1017,0 hPa 0,0 l/m 0,0 km/h (0 Bft) O-NO 59 0 min 0,000 mm 0,0 UV-I 0 W/m -1,4 C 2,0 C 0,0 km/h (0 Bft)
13.10.2015 00:40 1,9 C 78 % 1017,0 hPa 0,0 l/m 0,0 km/h (0 Bft) O-NO 59 0 min 0,000 mm 0,0 UV-I 0 W/m -1,5 C 1,9 C 0,0 km/h (0 Bft)
13.10.2015 00:45 1,7 C 78 % 1017,0 hPa 0,0 l/m 0,0 km/h (0 Bft) O-NO 59 0 min 0,000 mm 0,0 UV-I 0 W/m -1,7 C 1,7 C 0,0 km/h (0 Bft)
13.10.2015 00:50 1,6 C 78 % 1017,0 hPa 0,0 l/m 0,0 km/h (0 Bft) O-NO 59 0 min 0,000 mm 0,0 UV-I 0 W/m -1,8 C 1,6 C 1,6 km/h (1 Bft)
13.10.2015 00:55 1,5 C 78 % 1017,0 hPa 0,0 l/m 0,0 km/h (0 Bft) O-NO 59 0 min 0,000 mm 0,0 UV-I 0 W/m -1,9 C 1,5 C 0,0 km/h (0 Bft)
13.10.2015 01:00 1,4 C 78 % 1017,0 hPa 0,0 l/m 0,0 km/h (0 Bft) O-NO 59 0 min 0,000 mm 0,0 UV-I 0 W/m -2,0 C 1,4 C 0,0 km/h (0 Bft)
13.10.2015 01:05 1,3 C 78 % 1016,9 hPa 0,0 l/m 0,0 km/h (0 Bft) O-NO 59 0 min 0,000 mm 0,0 UV-I 0 W/m -2,1 C 1,3 C 0,0 km/h (0 Bft)
13.10.2015 01:10 1,1 C 78 % 1017,0 hPa 0,0 l/m 0,0 km/h (0 Bft) O-NO 59 0 min 0,000 mm 0,0 UV-I 0 W/m -2,3 C 1,1 C 0,0 km/h (0 Bft)
13.10.2015 01:15 1,0 C 78 % 1017,0 hPa 0,0 l/m 0,0 km/h (0 Bft) O-NO 59 0 min 0,000 mm 0,0 UV-I 0 W/m -2,4 C 1,0 C 0,0 km/h (0 Bft)
13.10.2015 01:20 0,9 C 78 % 1017,0 hPa 0,0 l/m 0,0 km/h (0 Bft) O-NO 59 0 min 0,000 mm 0,0 UV-I 0 W/m -2,5 C 0,9 C 0,0 km/h (0 Bft)
13.10.2015 01:25 0,8 C 79 % 1016,9 hPa 0,0 l/m 0,0 km/h (0 Bft) O-NO 59 0 min 0,000 mm 0,0 UV-I 0 W/m -2,4 C 0,8 C 0,0 km/h (0 Bft)
13.10.2015 01:30 0,7 C 78 % 1016,9 hPa 0,0 l/m 0,0 km/h (0 Bft) O-NO 59 0 min 0,000 mm 0,0 UV-I 0 W/m -2,7 C 0,7 C 0,0 km/h (0 Bft)
13.10.2015 01:35 0,7 C 78 % 1016,9 hPa 0,0 l/m 0,0 km/h (0 Bft) O-NO 59 0 min 0,000 mm 0,0 UV-I 0 W/m -2,7 C 0,7 C 0,0 km/h (0 Bft)
13.10.2015 01:40 0,6 C 78 % 1016,8 hPa 0,0 l/m 0,0 km/h (0 Bft) O-NO 59 0 min 0,000 mm 0,0 UV-I 0 W/m -2,8 C 0,6 C 0,0 km/h (0 Bft)
13.10.2015 01:45 0,6 C 78 % 1016,9 hPa 0,0 l/m 0,0 km/h (0 Bft) O-NO 59 0 min 0,000 mm 0,0 UV-I 0 W/m -2,8 C 0,6 C 0,0 km/h (0 Bft)
13.10.2015 01:50 0,5 C 78 % 1016,8 hPa 0,0 l/m 0,0 km/h (0 Bft) O-NO 59 0 min 0,000 mm 0,0 UV-I 0 W/m -2,9 C 0,5 C 0,0 km/h (0 Bft)
13.10.2015 01:55 0,5 C 78 % 1017,0 hPa 0,0 l/m 0,0 km/h (0 Bft) O-NO 59 0 min 0,000 mm 0,0 UV-I 0 W/m -2,9 C 0,5 C 0,0 km/h (0 Bft)
13.10.2015 02:00 0,4 C 78 % 1016,9 hPa 0,0 l/m 0,0 km/h (0 Bft) O-NO 59 0 min 0,000 mm 0,0 UV-I 0 W/m -3,0 C 0,4 C 0,0 km/h (0 Bft)
13.10.2015 02:05 0,4 C 78 % 1016,9 hPa 0,0 l/m 0,0 km/h (0 Bft) O-NO 59 0 min 0,000 mm 0,0 UV-I 0 W/m -3,0 C 0,4 C 0,0 km/h (0 Bft)
13.10.2015 02:10 0,4 C 78 % 1016,9 hPa 0,0 l/m 0,0 km/h (0 Bft) O-NO 59 0 min 0,000 mm 0,0 UV-I 0 W/m -3,0 C 0,4 C 0,0 km/h (0 Bft)
13.10.2015 02:15 0,3 C 78 % 1016,9 hPa 0,0 l/m 0,0 km/h (0 Bft) O-NO 59 0 min 0,000 mm 0,0 UV-I 0 W/m -3,1 C 0,3 C 0,0 km/h (0 Bft)
13.10.2015 02:20 0,2 C 78 % 1016,8 hPa 0,0 l/m 0,0 km/h (0 Bft) O-NO 59 0 min 0,000 mm 0,0 UV-I 0 W/m -3,2 C 0,2 C 0,0 km/h (0 Bft)
13.10.2015 02:25 0,1 C 78 % 1016,8 hPa 0,0 l/m 0,0 km/h (0 Bft) O-NO 59 0 min 0,000 mm 0,0 UV-I 0 W/m -3,3 C 0,1 C 0,0 km/h (0 Bft)
13.10.2015 02:30 0,0 C 78 % 1016,9 hPa 0,0 l/m 0,0 km/h (0 Bft) O-NO 59 0 min 0,000 mm 0,0 UV-I 0 W/m -3,4 C 0,0 C 0,0 km/h (0 Bft)
13.10.2015 02:35 -0,1 C 78 % 1016,8 hPa 0,0 l/m 0,0 km/h (0 Bft) O-NO 59 0 min 0,000 mm 0,0 UV-I 0 W/m -3,5 C -0,1 C 0,0 km/h (0 Bft)
13.10.2015 02:40 -0,2 C 78 % 1016,8 hPa 0,0 l/m 0,0 km/h (0 Bft) O-NO 59 0 min 0,000 mm 0,0 UV-I 0 W/m -3,6 C -0,2 C 0,0 km/h (0 Bft)
13.10.2015 02:45 -0,2 C 78 % 1016,8 hPa 0,0 l/m 0,0 km/h (0 Bft) O-NO 59 0 min 0,000 mm 0,0 UV-I 0 W/m -3,6 C -0,2 C 0,0 km/h (0 Bft)
13.10.2015 02:50 -0,2 C 78 % 1016,8 hPa 0,0 l/m 0,0 km/h (0 Bft) O-NO 59 0 min 0,000 mm 0,0 UV-I 0 W/m -3,6 C -0,2 C 0,0 km/h (0 Bft)
13.10.2015 02:55 -0,3 C 78 % 1016,7 hPa 0,0 l/m 0,0 km/h (0 Bft) O-NO 59 0 min 0,000 mm 0,0 UV-I 0 W/m -3,7 C -0,3 C 0,0 km/h (0 Bft)
13.10.2015 03:00 -0,3 C 78 % 1016,7 hPa 0,0 l/m 0,0 km/h (0 Bft) O-NO 59 0 min 0,000 mm 0,0 UV-I 0 W/m -3,7 C -0,3 C 0,0 km/h (0 Bft)
13.10.2015 03:05 -0,4 C 78 % 1016,6 hPa 0,0 l/m 0,0 km/h (0 Bft) O-NO 59 0 min 0,000 mm 0,0 UV-I 0 W/m -3,8 C -0,4 C 0,0 km/h (0 Bft)
13.10.2015 03:10 -0,5 C 78 % 1016,6 hPa 0,0 l/m 0,0 km/h (0 Bft) O-NO 59 0 min 0,000 mm 0,0 UV-I 0 W/m -3,9 C -0,5 C 0,0 km/h (0 Bft)
13.10.2015 03:15 -0,5 C 78 % 1016,5 hPa 0,0 l/m 0,0 km/h (0 Bft) O-NO 59 0 min 0,000 mm 0,0 UV-I 0 W/m -3,9 C -0,5 C 0,0 km/h (0 Bft)
13.10.2015 03:20 -0,6 C 78 % 1016,5 hPa 0,0 l/m 0,0 km/h (0 Bft) O-NO 59 0 min 0,000 mm 0,0 UV-I 0 W/m -3,9 C -0,6 C 0,0 km/h (0 Bft)
13.10.2015 03:25 -0,6 C 78 % 1016,5 hPa 0,0 l/m 0,0 km/h (0 Bft) O-NO 59 0 min 0,000 mm 0,0 UV-I 0 W/m -3,9 C -0,6 C 0,0 km/h (0 Bft)
13.10.2015 03:30 -0,7 C 78 % 1016,5 hPa 0,0 l/m 0,0 km/h (0 Bft) O-NO 59 0 min 0,000 mm 0,0 UV-I 0 W/m -4,0 C -0,7 C 0,0 km/h (0 Bft)
13.10.2015 03:35 -0,8 C 78 % 1016,4 hPa 0,0 l/m 0,0 km/h (0 Bft) O-NO 59 0 min 0,000 mm 0,0 UV-I 0 W/m -4,1 C -0,8 C 0,0 km/h (0 Bft)
13.10.2015 03:40 -0,8 C 78 % 1016,4 hPa 0,0 l/m 0,0 km/h (0 Bft) O-NO 59 0 min 0,000 mm 0,0 UV-I 0 W/m -4,1 C -0,8 C 0,0 km/h (0 Bft)
13.10.2015 03:45 -0,8 C 78 % 1016,5 hPa 0,0 l/m 0,0 km/h (0 Bft) O-NO 59 0 min 0,000 mm 0,0 UV-I 0 W/m -4,1 C -0,8 C 0,0 km/h (0 Bft)
13.10.2015 03:50 -0,8 C 78 % 1016,4 hPa 0,0 l/m 0,0 km/h (0 Bft) O-NO 59 0 min 0,000 mm 0,0 UV-I 0 W/m -4,1 C -0,8 C 0,0 km/h (0 Bft)
13.10.2015 03:55 -0,9 C 78 % 1016,4 hPa 0,0 l/m 0,0 km/h (0 Bft) O-NO 59 0 min 0,000 mm 0,0 UV-I 0 W/m -4,2 C -0,9 C 0,0 km/h (0 Bft)
13.10.2015 04:00 -0,9 C 78 % 1016,4 hPa 0,0 l/m 0,0 km/h (0 Bft) O-NO 59 0 min 0,000 mm 0,0 UV-I 0 W/m -4,2 C -0,9 C 0,0 km/h (0 Bft)
13.10.2015 04:05 -1,0 C 78 % 1016,3 hPa 0,0 l/m 0,0 km/h (0 Bft) O-NO 59 0 min 0,000 mm 0,0 UV-I 0 W/m -4,3 C -1,0 C 0,0 km/h (0 Bft)
13.10.2015 04:10 -1,0 C 78 % 1016,3 hPa 0,0 l/m 0,0 km/h (0 Bft) O-NO 59 0 min 0,000 mm 0,0 UV-I 0 W/m -4,3 C -1,0 C 0,0 km/h (0 Bft)
13.10.2015 04:15 -1,1 C 78 % 1016,3 hPa 0,0 l/m 0,0 km/h (0 Bft) O-NO 59 0 min 0,000 mm 0,0 UV-I 0 W/m -4,4 C -1,1 C 0,0 km/h (0 Bft)
13.10.2015 04:20 -1,1 C 78 % 1016,3 hPa 0,0 l/m 0,0 km/h (0 Bft) O-NO 59 0 min 0,000 mm 0,0 UV-I 0 W/m -4,4 C -1,1 C 0,0 km/h (0 Bft)
13.10.2015 04:25 -1,1 C 78 % 1016,2 hPa 0,0 l/m 0,0 km/h (0 Bft) O-NO 59 0 min 0,000 mm 0,0 UV-I 0 W/m -4,4 C -1,1 C 0,0 km/h (0 Bft)
13.10.2015 04:30 -1,1 C 78 % 1016,2 hPa 0,0 l/m 0,0 km/h (0 Bft) O-NO 59 0 min 0,000 mm 0,0 UV-I 0 W/m -4,4 C -1,1 C 0,0 km/h (0 Bft)
13.10.2015 04:35 -1,2 C 78 % 1016,3 hPa 0,0 l/m 0,0 km/h (0 Bft) O-NO 59 0 min 0,000 mm 0,0 UV-I 0 W/m -4,5 C -1,2 C 0,0 km/h (0 Bft)
13.10.2015 04:40 -1,2 C 78 % 1016,2 hPa 0,0 l/m 0,0 km/h (0 Bft) O-NO 59 0 min 0,000 mm 0,0 UV-I 0 W/m -4,5 C -1,2 C 0,0 km/h (0 Bft)
13.10.2015 04:45 -1,2 C 78 % 1016,2 hPa 0,0 l/m 0,0 km/h (0 Bft) O-NO 59 0 min 0,000 mm 0,0 UV-I 0 W/m -4,5 C -1,2 C 0,0 km/h (0 Bft)
13.10.2015 04:50 -1,2 C 78 % 1016,2 hPa 0,0 l/m 0,0 km/h (0 Bft) O-NO 59 0 min 0,000 mm 0,0 UV-I 0 W/m -4,5 C -1,2 C 0,0 km/h (0 Bft)
13.10.2015 04:55 -1,3 C 78 % 1016,2 hPa 0,0 l/m 0,0 km/h (0 Bft) O-NO 59 0 min 0,000 mm 0,0 UV-I 0 W/m -4,6 C -1,3 C 0,0 km/h (0 Bft)
13.10.2015 05:00 -1,3 C 78 % 1016,2 hPa 0,0 l/m 0,0 km/h (0 Bft) O-NO 59 0 min 0,000 mm 0,0 UV-I 0 W/m -4,6 C -1,3 C 0,0 km/h (0 Bft)
13.10.2015 05:05 -1,3 C 78 % 1016,1 hPa 0,0 l/m 0,0 km/h (0 Bft) O-NO 59 0 min 0,000 mm 0,0 UV-I 0 W/m -4,6 C -1,3 C 0,0 km/h (0 Bft)
13.10.2015 05:10 -1,3 C 78 % 1016,2 hPa 0,0 l/m 0,0 km/h (0 Bft) O-NO 59 0 min 0,000 mm 0,0 UV-I 0 W/m -4,6 C -1,3 C 0,0 km/h (0 Bft)
13.10.2015 05:15 -1,3 C 78 % 1016,1 hPa 0,0 l/m 0,0 km/h (0 Bft) O-NO 59 0 min 0,000 mm 0,0 UV-I 0 W/m -4,6 C -1,3 C 0,0 km/h (0 Bft)
13.10.2015 05:20 -1,4 C 79 % 1016,0 hPa 0,0 l/m 0,0 km/h (0 Bft) O-NO 59 0 min 0,000 mm 0,0 UV-I 0 W/m -4,6 C -1,4 C 0,0 km/h (0 Bft)
13.10.2015 05:25 -1,4 C 78 % 1016,0 hPa 0,0 l/m 0,0 km/h (0 Bft) O-NO 59 0 min 0,000 mm 0,0 UV-I 0 W/m -4,7 C -1,4 C 0,0 km/h (0 Bft)
13.10.2015 05:30 -1,4 C 78 % 1015,9 hPa 0,0 l/m 0,0 km/h (0 Bft) O-NO 59 0 min 0,000 mm 0,0 UV-I 0 W/m -4,7 C -1,4 C 0,0 km/h (0 Bft)
13.10.2015 05:35 -1,4 C 78 % 1015,9 hPa 0,0 l/m 0,0 km/h (0 Bft) O-NO 59 0 min 0,000 mm 0,0 UV-I 0 W/m -4,7 C -1,4 C 0,0 km/h (0 Bft)
13.10.2015 05:40 -1,4 C 78 % 1015,8 hPa 0,0 l/m 0,0 km/h (0 Bft) O-NO 59 0 min 0,000 mm 0,0 UV-I 0 W/m -4,7 C -1,4 C 0,0 km/h (0 Bft)
13.10.2015 05:45 -1,5 C 78 % 1015,8 hPa 0,0 l/m 0,0 km/h (0 Bft) O-NO 59 0 min 0,000 mm 0,0 UV-I 0 W/m -4,8 C -1,5 C 0,0 km/h (0 Bft)
13.10.2015 05:50 -1,5 C 78 % 1015,8 hPa 0,0 l/m 0,0 km/h (0 Bft) O-NO 59 0 min 0,000 mm 0,0 UV-I 0 W/m -4,8 C -1,5 C 0,0 km/h (0 Bft)
13.10.2015 05:55 -1,6 C 79 % 1015,8 hPa 0,0 l/m 0,0 km/h (0 Bft) O-NO 59 0 min 0,000 mm 0,0 UV-I 0 W/m -4,8 C -1,6 C 0,0 km/h (0 Bft)
13.10.2015 06:00 -1,6 C 79 % 1015,8 hPa 0,0 l/m 0,0 km/h (0 Bft) O-NO 59 0 min 0,000 mm 0,0 UV-I 0 W/m -4,8 C -1,6 C 0,0 km/h (0 Bft)
13.10.2015 06:05 -1,5 C 78 % 1015,9 hPa 0,0 l/m 0,0 km/h (0 Bft) O-NO 59 0 min 0,000 mm 0,0 UV-I 0 W/m -4,8 C -1,5 C 0,0 km/h (0 Bft)
13.10.2015 06:10 -1,4 C 78 % 1015,9 hPa 0,0 l/m 0,0 km/h (0 Bft) O-NO 59 0 min 0,000 mm 0,0 UV-I 0 W/m -4,7 C -1,4 C 0,0 km/h (0 Bft)
13.10.2015 06:15 -1,4 C 78 % 1015,9 hPa 0,0 l/m 0,0 km/h (0 Bft) O-NO 59 0 min 0,000 mm 0,0 UV-I 0 W/m -4,7 C -1,4 C 0,0 km/h (0 Bft)
13.10.2015 06:20 -1,4 C 78 % 1015,9 hPa 0,0 l/m 0,0 km/h (0 Bft) O-NO 59 0 min 0,000 mm 0,0 UV-I 0 W/m -4,7 C -1,4 C 0,0 km/h (0 Bft)
13.10.2015 06:25 -1,4 C 78 % 1016,0 hPa 0,0 l/m 0,0 km/h (0 Bft) O-NO 59 0 min 0,000 mm 0,0 UV-I 0 W/m -4,7 C -1,4 C 0,0 km/h (0 Bft)
13.10.2015 06:30 -1,4 C 78 % 1016,1 hPa 0,0 l/m 0,0 km/h (0 Bft) O-NO 59 0 min 0,000 mm 0,0 UV-I 0 W/m -4,7 C -1,4 C 0,0 km/h (0 Bft)
13.10.2015 06:35 -1,4 C 78 % 1016,0 hPa 0,0 l/m 0,0 km/h (0 Bft) O-NO 59 0 min 0,000 mm 0,0 UV-I 0 W/m -4,7 C -1,4 C 0,0 km/h (0 Bft)
13.10.2015 06:40 -1,4 C 78 % 1016,0 hPa 0,0 l/m 0,0 km/h (0 Bft) O-NO 59 0 min 0,000 mm 0,0 UV-I 0 W/m -4,7 C -1,4 C 0,0 km/h (0 Bft)
13.10.2015 06:45 -1,6 C 79 % 1016,0 hPa 0,0 l/m 0,0 km/h (0 Bft) O-NO 59 0 min 0,000 mm 0,0 UV-I 0 W/m -4,8 C -1,6 C 0,0 km/h (0 Bft)
13.10.2015 06:50 -1,6 C 79 % 1015,9 hPa 0,0 l/m 0,0 km/h (0 Bft) O-NO 59 0 min 0,000 mm 0,0 UV-I 0 W/m -4,8 C -1,6 C 0,0 km/h (0 Bft)
13.10.2015 06:55 -1,7 C 78 % 1015,9 hPa 0,0 l/m 0,0 km/h (0 Bft) O-NO 59 0 min 0,000 mm 0,0 UV-I 0 W/m -5,0 C -1,7 C 0,0 km/h (0 Bft)
13.10.2015 07:00 -1,8 C 79 % 1015,9 hPa 0,0 l/m 0,0 km/h (0 Bft) O-NO 59 0 min 0,000 mm 0,0 UV-I 0 W/m -4,9 C -1,8 C 0,0 km/h (0 Bft)
13.10.2015 07:05 -1,8 C 78 % 1015,9 hPa 0,0 l/m 0,0 km/h (0 Bft) O-NO 59 0 min 0,000 mm 0,0 UV-I 0 W/m -5,1 C -1,8 C 0,0 km/h (0 Bft)
13.10.2015 07:10 -1,8 C 78 % 1015,9 hPa 0,0 l/m 0,0 km/h (0 Bft) O-NO 59 0 min 0,000 mm 0,0 UV-I 0 W/m -5,1 C -1,8 C 0,0 km/h (0 Bft)
13.10.2015 07:15 -1,8 C 79 % 1015,8 hPa 0,0 l/m 0,0 km/h (0 Bft) O-NO 59 0 min 0,000 mm 0,0 UV-I 0 W/m -4,9 C -1,8 C 0,0 km/h (0 Bft)
13.10.2015 07:20 -1,9 C 79 % 1015,9 hPa 0,0 l/m 0,0 km/h (0 Bft) O-NO 59 0 min 0,000 mm 0,0 UV-I 0 W/m -5,0 C -1,9 C 0,0 km/h (0 Bft)
13.10.2015 07:25 -1,8 C 78 % 1016,0 hPa 0,0 l/m 0,0 km/h (0 Bft) O-NO 59 0 min 0,000 mm 0,0 UV-I 0 W/m -5,1 C -1,8 C 0,0 km/h (0 Bft)
13.10.2015 07:30 -1,7 C 78 % 1016,0 hPa 0,0 l/m 0,0 km/h (0 Bft) O-NO 59 0 min 0,000 mm 0,0 UV-I 0 W/m -5,0 C -1,7 C 0,0 km/h (0 Bft)
13.10.2015 07:35 -1,8 C 79 % 1015,9 hPa 0,0 l/m 0,0 km/h (0 Bft) O-NO 59 0 min 0,000 mm 0,0 UV-I 0 W/m -4,9 C -1,8 C 0,0 km/h (0 Bft)
13.10.2015 07:40 -1,9 C 79 % 1015,9 hPa 0,0 l/m 0,0 km/h (0 Bft) O-NO 59 0 min 0,000 mm 0,0 UV-I 0 W/m -5,0 C -1,9 C 0,0 km/h (0 Bft)
13.10.2015 07:45 -1,8 C 79 % 1015,9 hPa 0,0 l/m 0,0 km/h (0 Bft) O-NO 59 0 min 0,000 mm 0,0 UV-I 0 W/m -4,9 C -1,8 C 0,0 km/h (0 Bft)
13.10.2015 07:50 -1,8 C 78 % 1015,9 hPa 0,0 l/m 0,0 km/h (0 Bft) O-NO 59 0 min 0,000 mm 0,0 UV-I 3 W/m -5,1 C -1,8 C 0,0 km/h (0 Bft)
13.10.2015 07:55 -1,8 C 79 % 1015,9 hPa 0,0 l/m 0,0 km/h (0 Bft) O-NO 59 0 min 0,000 mm 0,0 UV-I 7 W/m -4,9 C -1,8 C 0,0 km/h (0 Bft)
13.10.2015 08:00 -1,7 C 78 % 1016,0 hPa 0,0 l/m 0,0 km/h (0 Bft) O-NO 59 0 min 0,000 mm 0,0 UV-I 10 W/m -5,0 C -1,7 C 0,0 km/h (0 Bft)
13.10.2015 08:05 -1,7 C 79 % 1016,0 hPa 0,0 l/m 0,0 km/h (0 Bft) O-NO 59 0 min 0,000 mm 0,0 UV-I 14 W/m -4,8 C -1,7 C 0,0 km/h (0 Bft)
13.10.2015 08:10 -1,7 C 78 % 1016,0 hPa 0,0 l/m 0,0 km/h (0 Bft) O-NO 59 0 min 0,000 mm 0,0 UV-I 18 W/m -5,0 C -1,7 C 0,0 km/h (0 Bft)
13.10.2015 08:15 -1,7 C 79 % 1016,0 hPa 0,0 l/m 0,0 km/h (0 Bft) O-NO 59 0 min 0,000 mm 0,0 UV-I 23 W/m -4,8 C -1,7 C 0,0 km/h (0 Bft)
13.10.2015 08:20 -1,6 C 79 % 1016,1 hPa 0,0 l/m 0,0 km/h (0 Bft) O-NO 59 0 min 0,000 mm 0,0 UV-I 29 W/m -4,8 C -1,6 C 0,0 km/h (0 Bft)
13.10.2015 08:25 -1,4 C 79 % 1016,2 hPa 0,0 l/m 0,0 km/h (0 Bft) O-NO 59 0 min 0,000 mm 0,0 UV-I 36 W/m -4,6 C -1,4 C 1,6 km/h (1 Bft)
13.10.2015 08:30 -1,3 C 78 % 1016,2 hPa 0,0 l/m 0,1 km/h (0 Bft) SW 215 0 min 0,000 mm 0,0 UV-I 44 W/m -4,6 C -1,3 C 3,2 km/h (1 Bft)
13.10.2015 08:35 -1,3 C 78 % 1016,1 hPa 0,0 l/m 0,0 km/h (0 Bft) SW 215 0 min 0,000 mm 0,0 UV-I 52 W/m -4,6 C -1,3 C 0,0 km/h (0 Bft)
13.10.2015 08:40 -1,1 C 78 % 1016,1 hPa 0,0 l/m 0,0 km/h (0 Bft) SW 215 0 min 0,000 mm 0,0 UV-I 66 W/m -4,4 C -1,1 C 0,0 km/h (0 Bft)
13.10.2015 08:45 -0,8 C 79 % 1016,2 hPa 0,0 l/m 0,0 km/h (0 Bft) SW 215 5 min 0,000 mm 0,0 UV-I 85 W/m -4,0 C -0,8 C 1,6 km/h (1 Bft)
13.10.2015 08:50 -0,6 C 78 % 1016,2 hPa 0,0 l/m 0,0 km/h (0 Bft) SW 215 5 min 0,000 mm 0,0 UV-I 107 W/m -3,9 C -0,6 C 0,0 km/h (0 Bft)
13.10.2015 08:55 -0,3 C 79 % 1016,3 hPa 0,0 l/m 0,0 km/h (0 Bft) SW 215 5 min 0,000 mm 0,0 UV-I 134 W/m -3,5 C -0,3 C 0,0 km/h (0 Bft)
13.10.2015 09:00 -0,3 C 79 % 1016,3 hPa 0,0 l/m 0,0 km/h (0 Bft) SW 215 5 min 0,025 mm 0,0 UV-I 159 W/m -3,5 C -0,3 C 0,0 km/h (0 Bft)
13.10.2015 09:05 -0,1 C 78 % 1016,4 hPa 0,0 l/m 0,0 km/h (0 Bft) SW 215 5 min 0,000 mm 0,0 UV-I 189 W/m -3,5 C -0,1 C 0,0 km/h (0 Bft)
13.10.2015 09:10 0,2 C 79 % 1016,4 hPa 0,0 l/m 0,0 km/h (0 Bft) SW 215 5 min 0,000 mm 0,0 UV-I 210 W/m -3,0 C 0,2 C 0,0 km/h (0 Bft)
13.10.2015 09:15 0,8 C 79 % 1016,4 hPa 0,0 l/m 0,0 km/h (0 Bft) SW 215 5 min 0,000 mm 0,0 UV-I 221 W/m -2,4 C 0,8 C 0,0 km/h (0 Bft)
13.10.2015 09:20 1,4 C 79 % 1016,4 hPa 0,0 l/m 0,0 km/h (0 Bft) SW 214 5 min 0,000 mm 0,0 UV-I 185 W/m -1,8 C 1,4 C 0,0 km/h (0 Bft)
13.10.2015 09:25 1,8 C 79 % 1016,5 hPa 0,0 l/m 0,0 km/h (0 Bft) S-SO 155 5 min 0,000 mm 0,0 UV-I 144 W/m -1,4 C 1,8 C 0,0 km/h (0 Bft)
13.10.2015 09:30 2,1 C 78 % 1016,4 hPa 0,0 l/m 0,0 km/h (0 Bft) S-SO 155 5 min 0,000 mm 0,0 UV-I 185 W/m -1,3 C 2,1 C 0,0 km/h (0 Bft)
13.10.2015 09:35 2,3 C 78 % 1016,5 hPa 0,0 l/m 0,0 km/h (0 Bft) S-SO 154 0 min 0,000 mm 0,4 UV-I 132 W/m -1,1 C 2,3 C 1,6 km/h (1 Bft)
13.10.2015 09:40 2,4 C 78 % 1016,5 hPa 0,0 l/m 0,0 km/h (0 Bft) S-SO 154 0 min 0,000 mm 0,5 UV-I 122 W/m -1,0 C 2,4 C 0,0 km/h (0 Bft)
13.10.2015 09:45 2,4 C 78 % 1016,6 hPa 0,0 l/m 0,0 km/h (0 Bft) S-SO 154 0 min 0,000 mm 0,5 UV-I 116 W/m -1,0 C 2,4 C 0,0 km/h (0 Bft)
13.10.2015 09:50 2,6 C 78 % 1016,6 hPa 0,0 l/m 0,0 km/h (0 Bft) S-SO 154 0 min 0,000 mm 0,5 UV-I 105 W/m -0,8 C 2,6 C 0,0 km/h (0 Bft)
13.10.2015 09:55 2,7 C 78 % 1016,6 hPa 0,0 l/m 0,0 km/h (0 Bft) N 360 0 min 0,000 mm 0,5 UV-I 112 W/m -0,7 C 2,7 C 0,0 km/h (0 Bft)
13.10.2015 10:00 2,8 C 78 % 1016,7 hPa 0,0 l/m 0,4 km/h (0 Bft) SO 140 0 min 0,051 mm 0,5 UV-I 120 W/m -0,6 C 2,8 C 3,2 km/h (1 Bft)
13.10.2015 10:05 3,1 C 78 % 1016,7 hPa 0,0 l/m 0,0 km/h (0 Bft) O-NO 57 0 min 0,000 mm 0,6 UV-I 133 W/m -0,4 C 3,1 C 1,6 km/h (1 Bft)
13.10.2015 10:10 3,2 C 78 % 1016,6 hPa 0,0 l/m 3,5 km/h (1 Bft) O-NO 73 0 min 0,000 mm 0,6 UV-I 131 W/m -0,3 C 3,2 C 17,7 km/h (3 Bft)
13.10.2015 10:15 3,2 C 79 % 1016,6 hPa 0,2 l/m 5,6 km/h (1 Bft) O-NO 59 0 min 0,000 mm 0,6 UV-I 153 W/m -0,1 C 3,2 C 16,1 km/h (3 Bft)
13.10.2015 10:20 3,3 C 79 % 1016,7 hPa 0,0 l/m 4,0 km/h (1 Bft) NO 40 0 min 0,000 mm 0,7 UV-I 163 W/m 0,0 C 3,3 C 11,3 km/h (2 Bft)
13.10.2015 10:25 3,5 C 79 % 1016,8 hPa 0,0 l/m 0,3 km/h (0 Bft) NO 48 0 min 0,000 mm 0,7 UV-I 146 W/m 0,2 C 3,5 C 4,8 km/h (1 Bft)
13.10.2015 10:30 3,6 C 79 % 1016,8 hPa 0,0 l/m 1,6 km/h (1 Bft) N-NO 14 0 min 0,000 mm 0,7 UV-I 138 W/m 0,3 C 3,6 C 9,7 km/h (2 Bft)
13.10.2015 10:35 3,6 C 79 % 1016,9 hPa 0,0 l/m 1,0 km/h (0 Bft) NO 55 0 min 0,000 mm 0,7 UV-I 130 W/m 0,3 C 3,6 C 8,0 km/h (2 Bft)
13.10.2015 10:40 3,7 C 79 % 1016,9 hPa 0,0 l/m 3,7 km/h (1 Bft) NO 54 0 min 0,000 mm 0,7 UV-I 128 W/m 0,4 C 3,7 C 12,9 km/h (3 Bft)
13.10.2015 10:45 3,7 C 79 % 1017,0 hPa 0,0 l/m 2,0 km/h (1 Bft) NW 309 0 min 0,000 mm 0,7 UV-I 128 W/m 0,4 C 3,7 C 9,7 km/h (2 Bft)
13.10.2015 10:50 3,7 C 79 % 1017,0 hPa 0,0 l/m 1,2 km/h (1 Bft) N-NO 32 0 min 0,000 mm 0,7 UV-I 132 W/m 0,4 C 3,7 C 8,0 km/h (2 Bft)
13.10.2015 10:55 3,8 C 79 % 1017,0 hPa 0,0 l/m 2,4 km/h (1 Bft) O-NO 57 0 min 0,000 mm 0,8 UV-I 155 W/m 0,5 C 3,8 C 11,3 km/h (2 Bft)
13.10.2015 11:00 3,8 C 79 % 1016,9 hPa 0,0 l/m 3,0 km/h (1 Bft) NO 44 0 min 0,000 mm 0,9 UV-I 197 W/m 0,5 C 3,8 C 11,3 km/h (2 Bft)
13.10.2015 11:05 3,8 C 79 % 1016,9 hPa 0,0 l/m 4,6 km/h (1 Bft) O-NO 67 0 min 0,051 mm 1,0 UV-I 228 W/m 0,5 C 3,8 C 17,7 km/h (3 Bft)
13.10.2015 11:10 3,8 C 79 % 1016,8 hPa 0,0 l/m 4,5 km/h (1 Bft) O-NO 68 5 min 0,000 mm 1,1 UV-I 253 W/m 0,5 C 3,8 C 14,5 km/h (3 Bft)
13.10.2015 11:15 4,0 C 79 % 1016,8 hPa 0,0 l/m 5,5 km/h (1 Bft) O-NO 63 5 min 0,000 mm 1,1 UV-I 260 W/m 0,7 C 4,0 C 17,7 km/h (3 Bft)
13.10.2015 11:20 4,1 C 79 % 1016,8 hPa 0,0 l/m 8,5 km/h (2 Bft) N-NO 15 0 min 0,000 mm 1,1 UV-I 241 W/m 0,8 C 2,2 C 19,3 km/h (3 Bft)
13.10.2015 11:25 4,2 C 79 % 1016,7 hPa 0,0 l/m 2,9 km/h (1 Bft) O-NO 58 0 min 0,000 mm 1,1 UV-I 232 W/m 0,9 C 4,2 C 14,5 km/h (3 Bft)
13.10.2015 11:30 4,3 C 79 % 1016,7 hPa 0,0 l/m 6,1 km/h (2 Bft) NO 55 0 min 0,000 mm 1,1 UV-I 226 W/m 1,0 C 4,3 C 16,1 km/h (3 Bft)
13.10.2015 11:35 4,4 C 79 % 1016,6 hPa 0,0 l/m 4,3 km/h (1 Bft) O 100 0 min 0,000 mm 1,1 UV-I 208 W/m 1,1 C 4,4 C 14,5 km/h (3 Bft)
13.10.2015 11:40 4,6 C 79 % 1016,6 hPa 0,0 l/m 5,0 km/h (1 Bft) O-NO 76 0 min 0,000 mm 1,0 UV-I 190 W/m 1,3 C 4,6 C 14,5 km/h (3 Bft)
13.10.2015 11:45 4,6 C 79 % 1016,6 hPa 0,0 l/m 2,8 km/h (1 Bft) NO 48 0 min 0,000 mm 1,0 UV-I 174 W/m 1,3 C 4,6 C 12,9 km/h (3 Bft)
13.10.2015 11:50 4,5 C 79 % 1016,6 hPa 0,0 l/m 4,6 km/h (1 Bft) O-NO 72 0 min 0,000 mm 1,0 UV-I 170 W/m 1,2 C 4,5 C 11,3 km/h (2 Bft)
13.10.2015 11:55 4,5 C 79 % 1016,6 hPa 0,0 l/m 3,0 km/h (1 Bft) O-NO 71 0 min 0,000 mm 1,0 UV-I 175 W/m 1,2 C 4,5 C 8,0 km/h (2 Bft)
13.10.2015 12:00 4,6 C 79 % 1016,7 hPa 0,0 l/m 2,1 km/h (1 Bft) O-NO 60 0 min 0,000 mm 1,0 UV-I 174 W/m 1,3 C 4,6 C 12,9 km/h (3 Bft)
13.10.2015 12:05 4,7 C 79 % 1016,7 hPa 0,0 l/m 2,5 km/h (1 Bft) N 5 0 min 0,102 mm 1,1 UV-I 189 W/m 1,4 C 4,7 C 11,3 km/h (2 Bft)
13.10.2015 12:10 4,7 C 79 % 1016,7 hPa 0,0 l/m 2,2 km/h (1 Bft) O-NO 59 0 min 0,000 mm 1,1 UV-I 209 W/m 1,4 C 4,7 C 12,9 km/h (3 Bft)
13.10.2015 12:15 4,8 C 79 % 1016,5 hPa 0,0 l/m 4,3 km/h (1 Bft) NO 49 0 min 0,000 mm 1,1 UV-I 214 W/m 1,5 C 4,8 C 14,5 km/h (3 Bft)
13.10.2015 12:20 4,8 C 79 % 1016,6 hPa 0,0 l/m 7,3 km/h (2 Bft) NO 49 0 min 0,000 mm 1,1 UV-I 210 W/m 1,5 C 4,0 C 17,7 km/h (3 Bft)
13.10.2015 12:25 4,8 C 79 % 1016,6 hPa 0,0 l/m 7,0 km/h (2 Bft) NO 48 0 min 0,000 mm 1,1 UV-I 200 W/m 1,5 C 4,3 C 14,5 km/h (3 Bft)
13.10.2015 12:30 4,7 C 79 % 1016,7 hPa 0,0 l/m 6,7 km/h (2 Bft) O 92 0 min 0,000 mm 1,1 UV-I 192 W/m 1,4 C 4,4 C 16,1 km/h (3 Bft)
13.10.2015 12:35 4,7 C 79 % 1016,7 hPa 0,0 l/m 10,5 km/h (2 Bft) O-SO 102 0 min 0,000 mm 1,0 UV-I 178 W/m 1,4 C 1,4 C 17,7 km/h (3 Bft)
13.10.2015 12:40 4,6 C 79 % 1016,8 hPa 0,0 l/m 7,5 km/h (2 Bft) O-NO 69 0 min 0,000 mm 1,0 UV-I 171 W/m 1,3 C 3,6 C 20,9 km/h (4 Bft)
13.10.2015 12:45 4,6 C 79 % 1016,7 hPa 0,0 l/m 7,4 km/h (2 Bft) NO 55 0 min 0,000 mm 1,1 UV-I 187 W/m 1,3 C 3,7 C 19,3 km/h (3 Bft)
13.10.2015 12:50 4,7 C 79 % 1016,7 hPa 0,0 l/m 6,2 km/h (2 Bft) O-NO 70 0 min 0,000 mm 1,1 UV-I 196 W/m 1,4 C 4,7 C 16,1 km/h (3 Bft)
13.10.2015 12:55 4,7 C 79 % 1016,7 hPa 0,0 l/m 9,5 km/h (2 Bft) O-NO 67 0 min 0,000 mm 1,1 UV-I 180 W/m 1,4 C 2,1 C 24,1 km/h (4 Bft)
13.10.2015 13:00 4,7 C 79 % 1016,6 hPa 0,0 l/m 10,3 km/h (2 Bft) O-NO 76 0 min 0,000 mm 1,2 UV-I 205 W/m 1,4 C 1,5 C 19,3 km/h (3 Bft)
13.10.2015 13:05 4,7 C 79 % 1016,6 hPa 0,0 l/m 10,7 km/h (2 Bft) O-NO 63 0 min 0,101 mm 1,3 UV-I 220 W/m 1,4 C 1,3 C 19,3 km/h (3 Bft)
13.10.2015 13:10 4,8 C 79 % 1016,6 hPa 0,0 l/m 5,5 km/h (1 Bft) NO 40 0 min 0,000 mm 1,3 UV-I 230 W/m 1,5 C 4,8 C 16,1 km/h (3 Bft)
13.10.2015 13:15 5,1 C 79 % 1016,6 hPa 0,0 l/m 0,9 km/h (0 Bft) NO 36 5 min 0,000 mm 1,4 UV-I 300 W/m 1,8 C 5,1 C 8,0 km/h (2 Bft)
13.10.2015 13:20 5,3 C 79 % 1016,6 hPa 0,0 l/m 3,1 km/h (1 Bft) N-NO 25 5 min 0,000 mm 1,5 UV-I 314 W/m 2,0 C 5,3 C 11,3 km/h (2 Bft)
13.10.2015 13:25 5,5 C 78 % 1016,6 hPa 0,0 l/m 7,4 km/h (2 Bft) NO 53 0 min 0,000 mm 1,4 UV-I 259 W/m 2,0 C 4,6 C 24,1 km/h (4 Bft)
13.10.2015 13:30 5,6 C 78 % 1016,6 hPa 0,0 l/m 3,9 km/h (1 Bft) O-NO 60 0 min 0,000 mm 1,3 UV-I 231 W/m 2,1 C 5,6 C 14,5 km/h (3 Bft)
13.10.2015 13:35 5,6 C 78 % 1016,5 hPa 0,0 l/m 7,4 km/h (2 Bft) O-NO 64 0 min 0,000 mm 1,2 UV-I 210 W/m 2,1 C 4,7 C 20,9 km/h (4 Bft)
13.10.2015 13:40 5,6 C 78 % 1016,6 hPa 0,0 l/m 4,7 km/h (1 Bft) N-NO 31 0 min 0,000 mm 1,2 UV-I 201 W/m 2,1 C 5,6 C 14,5 km/h (3 Bft)
13.10.2015 13:45 5,5 C 78 % 1016,6 hPa 0,0 l/m 6,2 km/h (2 Bft) O-NO 58 0 min 0,000 mm 1,3 UV-I 236 W/m 2,0 C 5,5 C 14,5 km/h (3 Bft)
13.10.2015 13:50 5,7 C 78 % 1016,6 hPa 0,0 l/m 4,5 km/h (1 Bft) O-NO 59 0 min 0,000 mm 1,3 UV-I 249 W/m 2,2 C 5,7 C 16,1 km/h (3 Bft)
13.10.2015 13:55 5,8 C 78 % 1016,6 hPa 0,0 l/m 1,8 km/h (1 Bft) NO 44 5 min 0,000 mm 1,4 UV-I 305 W/m 2,3 C 5,8 C 11,3 km/h (2 Bft)
13.10.2015 14:00 5,9 C 78 % 1016,6 hPa 0,0 l/m 4,0 km/h (1 Bft) O-NO 77 5 min 0,102 mm 1,4 UV-I 299 W/m 2,4 C 5,9 C 12,9 km/h (3 Bft)
13.10.2015 14:05 6,1 C 78 % 1016,5 hPa 0,0 l/m 3,9 km/h (1 Bft) O-NO 63 0 min 0,000 mm 1,3 UV-I 247 W/m 2,6 C 6,1 C 12,9 km/h (3 Bft)
13.10.2015 14:10 6,1 C 77 % 1016,5 hPa 0,0 l/m 6,7 km/h (2 Bft) O-NO 64 0 min 0,000 mm 1,2 UV-I 213 W/m 2,4 C 5,9 C 16,1 km/h (3 Bft)
13.10.2015 14:15 5,9 C 77 % 1016,5 hPa 0,0 l/m 7,5 km/h (2 Bft) O-NO 65 0 min 0,000 mm 1,2 UV-I 191 W/m 2,2 C 5,0 C 17,7 km/h (3 Bft)
13.10.2015 14:20 5,8 C 78 % 1016,5 hPa 0,0 l/m 6,4 km/h (2 Bft) NO 42 0 min 0,000 mm 1,1 UV-I 189 W/m 2,3 C 5,8 C 14,5 km/h (3 Bft)
13.10.2015 14:25 5,9 C 77 % 1016,6 hPa 0,0 l/m 0,5 km/h (0 Bft) O 90 0 min 0,000 mm 1,0 UV-I 182 W/m 2,2 C 5,9 C 11,3 km/h (2 Bft)
13.10.2015 14:30 6,1 C 78 % 1016,5 hPa 0,0 l/m 0,2 km/h (0 Bft) O-NO 67 0 min 0,000 mm 1,2 UV-I 221 W/m 2,6 C 6,1 C 6,4 km/h (2 Bft)
13.10.2015 14:35 6,1 C 77 % 1016,4 hPa 0,0 l/m 7,2 km/h (2 Bft) O-NO 67 5 min 0,000 mm 1,3 UV-I 273 W/m 2,4 C 5,4 C 17,7 km/h (3 Bft)
13.10.2015 14:40 6,1 C 77 % 1016,4 hPa 0,0 l/m 9,5 km/h (2 Bft) O-NO 76 5 min 0,000 mm 1,4 UV-I 337 W/m 2,4 C 3,6 C 16,1 km/h (3 Bft)
13.10.2015 14:45 6,2 C 77 % 1016,4 hPa 0,0 l/m 6,8 km/h (2 Bft) NO 47 5 min 0,000 mm 1,3 UV-I 303 W/m 2,5 C 5,9 C 17,7 km/h (3 Bft)
13.10.2015 14:50 6,3 C 77 % 1016,5 hPa 0,0 l/m 1,3 km/h (1 Bft) O-NO 76 0 min 0,000 mm 1,1 UV-I 248 W/m 2,6 C 6,3 C 11,3 km/h (2 Bft)
13.10.2015 14:55 6,4 C 76 % 1016,6 hPa 0,0 l/m 2,1 km/h (1 Bft) NO 38 0 min 0,000 mm 1,0 UV-I 194 W/m 2,5 C 6,4 C 11,3 km/h (2 Bft)
13.10.2015 15:00 6,2 C 75 % 1016,6 hPa 0,0 l/m 10,2 km/h (2 Bft) NO 46 0 min 0,000 mm 0,9 UV-I 198 W/m 2,1 C 3,3 C 20,9 km/h (4 Bft)
13.10.2015 15:05 5,9 C 76 % 1016,7 hPa 0,0 l/m 8,2 km/h (2 Bft) O-NO 58 0 min 0,101 mm 0,9 UV-I 203 W/m 2,0 C 4,4 C 17,7 km/h (3 Bft)
13.10.2015 15:10 5,9 C 77 % 1016,7 hPa 0,0 l/m 4,3 km/h (1 Bft) O-NO 57 0 min 0,000 mm 0,8 UV-I 160 W/m 2,2 C 5,9 C 11,3 km/h (2 Bft)
13.10.2015 15:15 5,9 C 77 % 1016,7 hPa 0,0 l/m 4,3 km/h (1 Bft) O-NO 74 0 min 0,000 mm 0,6 UV-I 117 W/m 2,2 C 5,9 C 12,9 km/h (3 Bft)
13.10.2015 15:20 5,8 C 77 % 1016,6 hPa 0,0 l/m 7,1 km/h (2 Bft) O 89 0 min 0,000 mm 0,6 UV-I 102 W/m 2,1 C 5,2 C 14,5 km/h (3 Bft)
13.10.2015 15:25 5,7 C 77 % 1016,6 hPa 0,0 l/m 4,8 km/h (1 Bft) O-NO 64 0 min 0,000 mm 0,5 UV-I 87 W/m 2,0 C 5,7 C 14,5 km/h (3 Bft)
13.10.2015 15:30 5,7 C 77 % 1016,6 hPa 0,0 l/m 3,2 km/h (1 Bft) O-NO 68 0 min 0,000 mm 0,5 UV-I 85 W/m 2,0 C 5,7 C 11,3 km/h (2 Bft)
13.10.2015 15:35 5,6 C 78 % 1016,5 hPa 0,0 l/m 2,5 km/h (1 Bft) O-NO 59 0 min 0,000 mm 0,5 UV-I 85 W/m 2,1 C 5,6 C 11,3 km/h (2 Bft)
13.10.2015 15:40 5,6 C 78 % 1016,6 hPa 0,0 l/m 4,8 km/h (1 Bft) O-NO 78 0 min 0,000 mm 0,5 UV-I 87 W/m 2,1 C 5,6 C 14,5 km/h (3 Bft)
13.10.2015 15:45 5,6 C 78 % 1016,5 hPa 0,0 l/m 3,0 km/h (1 Bft) O-NO 58 0 min 0,000 mm 0,5 UV-I 80 W/m 2,1 C 5,6 C 11,3 km/h (2 Bft)
13.10.2015 15:50 5,5 C 78 % 1016,6 hPa 0,0 l/m 2,3 km/h (1 Bft) NO 54 0 min 0,000 mm 0,0 UV-I 66 W/m 2,0 C 5,5 C 11,3 km/h (2 Bft)
13.10.2015 15:55 5,5 C 78 % 1016,6 hPa 0,0 l/m 0,5 km/h (0 Bft) O-NO 61 0 min 0,000 mm 0,0 UV-I 60 W/m 2,0 C 5,5 C 6,4 km/h (2 Bft)
13.10.2015 16:00 5,5 C 78 % 1016,7 hPa 0,0 l/m 2,2 km/h (1 Bft) O-NO 78 0 min 0,000 mm 0,0 UV-I 62 W/m 2,0 C 5,5 C 8,0 km/h (2 Bft)
13.10.2015 16:05 5,6 C 78 % 1016,7 hPa 0,0 l/m 1,9 km/h (1 Bft) O-NO 58 0 min 0,051 mm 0,0 UV-I 72 W/m 2,1 C 5,6 C 14,5 km/h (3 Bft)
13.10.2015 16:10 5,6 C 78 % 1016,7 hPa 0,0 l/m 0,1 km/h (0 Bft) O-NO 70 0 min 0,000 mm 0,1 UV-I 76 W/m 2,1 C 5,6 C 1,6 km/h (1 Bft)
13.10.2015 16:15 5,6 C 78 % 1016,6 hPa 0,0 l/m 3,6 km/h (1 Bft) NO 47 0 min 0,000 mm 0,5 UV-I 94 W/m 2,1 C 5,6 C 16,1 km/h (3 Bft)
13.10.2015 16:20 5,6 C 78 % 1016,7 hPa 0,0 l/m 2,7 km/h (1 Bft) O-NO 60 0 min 0,000 mm 0,5 UV-I 107 W/m 2,1 C 5,6 C 11,3 km/h (2 Bft)
13.10.2015 16:25 5,6 C 78 % 1016,8 hPa 0,0 l/m 1,9 km/h (1 Bft) NO 55 0 min 0,000 mm 0,5 UV-I 109 W/m 2,1 C 5,6 C 11,3 km/h (2 Bft)
13.10.2015 16:30 5,7 C 78 % 1016,7 hPa 0,0 l/m 1,5 km/h (1 Bft) NO 50 0 min 0,000 mm 0,5 UV-I 105 W/m 2,2 C 5,7 C 8,0 km/h (2 Bft)
13.10.2015 16:35 5,7 C 78 % 1016,8 hPa 0,0 l/m 4,6 km/h (1 Bft) O-NO 71 0 min 0,000 mm 0,2 UV-I 92 W/m 2,2 C 5,7 C 12,9 km/h (3 Bft)
13.10.2015 16:40 5,6 C 78 % 1016,7 hPa 0,0 l/m 7,5 km/h (2 Bft) O-NO 59 0 min 0,000 mm 0,0 UV-I 83 W/m 2,1 C 4,6 C 19,3 km/h (3 Bft)
13.10.2015 16:45 5,4 C 78 % 1016,7 hPa 0,0 l/m 5,4 km/h (1 Bft) N-NO 29 0 min 0,000 mm 0,0 UV-I 71 W/m 1,9 C 5,4 C 14,5 km/h (3 Bft)
13.10.2015 16:50 5,3 C 78 % 1016,8 hPa 0,0 l/m 8,3 km/h (2 Bft) NO 54 0 min 0,000 mm 0,0 UV-I 60 W/m 1,8 C 3,7 C 17,7 km/h (3 Bft)
13.10.2015 16:55 5,3 C 78 % 1016,7 hPa 0,0 l/m 2,5 km/h (1 Bft) O-SO 120 0 min 0,000 mm 0,0 UV-I 47 W/m 1,8 C 5,3 C 11,3 km/h (2 Bft)
13.10.2015 17:00 5,3 C 78 % 1016,9 hPa 0,0 l/m 1,1 km/h (1 Bft) O 86 0 min 0,000 mm 0,0 UV-I 36 W/m 1,8 C 5,3 C 11,3 km/h (2 Bft)
13.10.2015 17:05 5,3 C 78 % 1016,9 hPa 0,0 l/m 2,0 km/h (1 Bft) O 84 0 min 0,051 mm 0,0 UV-I 26 W/m 1,8 C 5,3 C 8,0 km/h (2 Bft)
13.10.2015 17:10 5,3 C 78 % 1016,9 hPa 0,0 l/m 2,1 km/h (1 Bft) O-NO 63 0 min 0,000 mm 0,0 UV-I 23 W/m 1,8 C 5,3 C 12,9 km/h (3 Bft)
13.10.2015 17:15 5,2 C 78 % 1016,8 hPa 0,0 l/m 0,8 km/h (0 Bft) NO 45 0 min 0,000 mm 0,0 UV-I 19 W/m 1,7 C 5,2 C 8,0 km/h (2 Bft)
13.10.2015 17:20 5,2 C 78 % 1016,8 hPa 0,0 l/m 2,3 km/h (1 Bft) O-NO 65 0 min 0,000 mm 0,0 UV-I 18 W/m 1,7 C 5,2 C 8,0 km/h (2 Bft)
13.10.2015 17:25 5,2 C 79 % 1016,8 hPa 0,0 l/m 0,2 km/h (0 Bft) O 99 0 min 0,000 mm 0,0 UV-I 14 W/m 1,9 C 5,2 C 4,8 km/h (1 Bft)
13.10.2015 17:30 5,1 C 79 % 1016,9 hPa 0,0 l/m 1,1 km/h (1 Bft) O-NO 70 0 min 0,000 mm 0,0 UV-I 12 W/m 1,8 C 5,1 C 6,4 km/h (2 Bft)
13.10.2015 17:35 5,1 C 79 % 1016,9 hPa 0,0 l/m 0,0 km/h (0 Bft) O-NO 70 0 min 0,000 mm 0,0 UV-I 13 W/m 1,8 C 5,1 C 0,0 km/h (0 Bft)
13.10.2015 17:40 5,1 C 79 % 1016,9 hPa 0,0 l/m 0,2 km/h (0 Bft) O-NO 65 0 min 0,000 mm 0,0 UV-I 14 W/m 1,8 C 5,1 C 4,8 km/h (1 Bft)
13.10.2015 17:45 5,1 C 79 % 1017,0 hPa 0,0 l/m 1,4 km/h (1 Bft) O-NO 75 0 min 0,000 mm 0,0 UV-I 11 W/m 1,8 C 5,1 C 11,3 km/h (2 Bft)
13.10.2015 17:50 5,1 C 79 % 1017,0 hPa 0,0 l/m 0,0 km/h (0 Bft) O-NO 75 0 min 0,000 mm 0,0 UV-I 8 W/m 1,8 C 5,1 C 0,0 km/h (0 Bft)
13.10.2015 17:55 5,0 C 78 % 1017,1 hPa 0,0 l/m 0,3 km/h (0 Bft) O 86 0 min 0,000 mm 0,0 UV-I 4 W/m 1,5 C 5,0 C 3,2 km/h (1 Bft)
13.10.2015 18:00 4,9 C 78 % 1017,1 hPa 0,0 l/m 1,9 km/h (1 Bft) O 86 0 min 0,000 mm 0,0 UV-I 0 W/m 1,4 C 4,9 C 8,0 km/h (2 Bft)
13.10.2015 18:05 4,9 C 79 % 1017,1 hPa 0,0 l/m 0,0 km/h (0 Bft) NW 311 0 min 0,000 mm 0,0 UV-I 0 W/m 1,6 C 4,9 C 1,6 km/h (1 Bft)
13.10.2015 18:10 5,0 C 79 % 1017,1 hPa 0,0 l/m 0,0 km/h (0 Bft) N 5 0 min 0,000 mm 0,0 UV-I 0 W/m 1,7 C 5,0 C 0,0 km/h (0 Bft)
13.10.2015 18:15 4,9 C 78 % 1017,2 hPa 0,0 l/m 2,6 km/h (1 Bft) O-NO 60 0 min 0,000 mm 0,0 UV-I 0 W/m 1,4 C 4,9 C 14,5 km/h (3 Bft)
13.10.2015 18:20 4,9 C 79 % 1017,2 hPa 0,0 l/m 0,6 km/h (0 Bft) O-NO 65 0 min 0,000 mm 0,0 UV-I 0 W/m 1,6 C 4,9 C 8,0 km/h (2 Bft)
13.10.2015 18:25 4,8 C 79 % 1017,3 hPa 0,0 l/m 0,0 km/h (0 Bft) O-NO 65 0 min 0,000 mm 0,0 UV-I 0 W/m 1,5 C 4,8 C 1,6 km/h (1 Bft)
13.10.2015 18:30 4,8 C 79 % 1017,3 hPa 0,0 l/m 0,3 km/h (0 Bft) O-SO 110 0 min 0,000 mm 0,0 UV-I 0 W/m 1,5 C 4,8 C 3,2 km/h (1 Bft)
13.10.2015 18:35 4,8 C 79 % 1017,3 hPa 0,0 l/m 0,0 km/h (0 Bft) O 90 0 min 0,000 mm 0,0 UV-I 0 W/m 1,5 C 4,8 C 0,0 km/h (0 Bft)
13.10.2015 18:40 4,8 C 79 % 1017,4 hPa 0,0 l/m 0,0 km/h (0 Bft) O 92 0 min 0,000 mm 0,0 UV-I 0 W/m 1,5 C 4,8 C 1,6 km/h (1 Bft)
13.10.2015 18:45 4,8 C 79 % 1017,5 hPa 0,0 l/m 1,3 km/h (1 Bft) O-NO 61 0 min 0,000 mm 0,0 UV-I 0 W/m 1,5 C 4,8 C 9,7 km/h (2 Bft)
13.10.2015 18:50 4,7 C 79 % 1017,5 hPa 0,0 l/m 0,5 km/h (0 Bft) O 92 0 min 0,000 mm 0,0 UV-I 0 W/m 1,4 C 4,7 C 8,0 km/h (2 Bft)
13.10.2015 18:55 4,6 C 79 % 1017,5 hPa 0,0 l/m 0,3 km/h (0 Bft) O 81 0 min 0,000 mm 0,0 UV-I 0 W/m 1,3 C 4,6 C 4,8 km/h (1 Bft)
13.10.2015 19:00 4,6 C 79 % 1017,5 hPa 0,0 l/m 2,1 km/h (1 Bft) NO 36 0 min 0,000 mm 0,0 UV-I 0 W/m 1,3 C 4,6 C 12,9 km/h (3 Bft)
13.10.2015 19:05 4,6 C 79 % 1017,6 hPa 0,0 l/m 1,0 km/h (0 Bft) NO 51 0 min 0,000 mm 0,0 UV-I 0 W/m 1,3 C 4,6 C 16,1 km/h (3 Bft)
13.10.2015 19:10 4,5 C 79 % 1017,6 hPa 0,0 l/m 0,4 km/h (0 Bft) O-NO 65 0 min 0,000 mm 0,0 UV-I 0 W/m 1,2 C 4,5 C 8,0 km/h (2 Bft)
13.10.2015 19:15 4,4 C 79 % 1017,6 hPa 0,0 l/m 4,0 km/h (1 Bft) O-NO 75 0 min 0,000 mm 0,0 UV-I 0 W/m 1,1 C 4,4 C 17,7 km/h (3 Bft)
13.10.2015 19:20 4,3 C 79 % 1017,7 hPa 0,0 l/m 3,2 km/h (1 Bft) NO 42 0 min 0,000 mm 0,0 UV-I 0 W/m 1,0 C 4,3 C 12,9 km/h (3 Bft)
13.10.2015 19:25 4,3 C 79 % 1017,7 hPa 0,0 l/m 2,8 km/h (1 Bft) NW 306 0 min 0,000 mm 0,0 UV-I 0 W/m 1,0 C 4,3 C 8,0 km/h (2 Bft)
13.10.2015 19:30 4,3 C 79 % 1017,7 hPa 0,0 l/m 0,0 km/h (0 Bft) N-NO 26 0 min 0,000 mm 0,0 UV-I 0 W/m 1,0 C 4,3 C 0,0 km/h (0 Bft)
13.10.2015 19:35 4,3 C 79 % 1017,7 hPa 0,0 l/m 0,6 km/h (0 Bft) O-NO 58 0 min 0,000 mm 0,0 UV-I 0 W/m 1,0 C 4,3 C 4,8 km/h (1 Bft)
13.10.2015 19:40 4,2 C 79 % 1017,7 hPa 0,0 l/m 2,7 km/h (1 Bft) O-NO 67 0 min 0,000 mm 0,0 UV-I 0 W/m 0,9 C 4,2 C 14,5 km/h (3 Bft)
13.10.2015 19:45 4,2 C 79 % 1017,7 hPa 0,0 l/m 1,8 km/h (1 Bft) O-NO 66 0 min 0,000 mm 0,0 UV-I 0 W/m 0,9 C 4,2 C 8,0 km/h (2 Bft)
13.10.2015 19:50 4,1 C 79 % 1017,8 hPa 0,0 l/m 5,2 km/h (1 Bft) NO 42 0 min 0,000 mm 0,0 UV-I 0 W/m 0,8 C 4,1 C 20,9 km/h (4 Bft)
13.10.2015 19:55 4,1 C 79 % 1017,8 hPa 0,0 l/m 2,6 km/h (1 Bft) O-NO 71 0 min 0,000 mm 0,0 UV-I 0 W/m 0,8 C 4,1 C 9,7 km/h (2 Bft)
13.10.2015 20:00 4,0 C 79 % 1017,8 hPa 0,0 l/m 1,7 km/h (1 Bft) O-NO 61 0 min 0,000 mm 0,0 UV-I 0 W/m 0,7 C 4,0 C 11,3 km/h (2 Bft)
13.10.2015 20:05 4,0 C 78 % 1017,8 hPa 0,0 l/m 0,7 km/h (0 Bft) O-NO 62 0 min 0,025 mm 0,0 UV-I 0 W/m 0,5 C 4,0 C 8,0 km/h (2 Bft)
13.10.2015 20:10 3,9 C 79 % 1017,8 hPa 0,0 l/m 1,0 km/h (0 Bft) O-NO 61 0 min 0,000 mm 0,0 UV-I 0 W/m 0,6 C 3,9 C 4,8 km/h (1 Bft)
13.10.2015 20:15 3,9 C 78 % 1017,8 hPa 0,0 l/m 1,0 km/h (0 Bft) NO 49 0 min 0,000 mm 0,0 UV-I 0 W/m 0,4 C 3,9 C 6,4 km/h (2 Bft)
13.10.2015 20:20 3,9 C 78 % 1017,9 hPa 0,0 l/m 2,1 km/h (1 Bft) O-NO 71 0 min 0,000 mm 0,0 UV-I 0 W/m 0,4 C 3,9 C 12,9 km/h (3 Bft)
13.10.2015 20:25 3,9 C 78 % 1018,0 hPa 0,0 l/m 1,8 km/h (1 Bft) O-NO 63 0 min 0,000 mm 0,0 UV-I 0 W/m 0,4 C 3,9 C 14,5 km/h (3 Bft)
13.10.2015 20:30 3,8 C 78 % 1018,0 hPa 0,0 l/m 5,4 km/h (1 Bft) O-NO 61 0 min 0,000 mm 0,0 UV-I 0 W/m 0,3 C 3,8 C 17,7 km/h (3 Bft)
13.10.2015 20:35 3,8 C 78 % 1018,0 hPa 0,0 l/m 1,3 km/h (1 Bft) O-NO 63 0 min 0,000 mm 0,0 UV-I 0 W/m 0,3 C 3,8 C 11,3 km/h (2 Bft)
13.10.2015 20:40 3,8 C 78 % 1018,1 hPa 0,0 l/m 0,4 km/h (0 Bft) NO 51 0 min 0,000 mm 0,0 UV-I 0 W/m 0,3 C 3,8 C 3,2 km/h (1 Bft)
13.10.2015 20:45 3,8 C 78 % 1018,1 hPa 0,0 l/m 0,6 km/h (0 Bft) O-NO 76 0 min 0,000 mm 0,0 UV-I 0 W/m 0,3 C 3,8 C 4,8 km/h (1 Bft)
13.10.2015 20:50 3,8 C 78 % 1018,1 hPa 0,0 l/m 0,3 km/h (0 Bft) O 86 0 min 0,000 mm 0,0 UV-I 0 W/m 0,3 C 3,8 C 4,8 km/h (1 Bft)
13.10.2015 20:55 3,8 C 78 % 1018,0 hPa 0,0 l/m 0,1 km/h (0 Bft) O-NO 65 0 min 0,000 mm 0,0 UV-I 0 W/m 0,3 C 3,8 C 3,2 km/h (1 Bft)
13.10.2015 21:00 3,8 C 78 % 1018,1 hPa 0,0 l/m 0,3 km/h (0 Bft) N-NO 32 0 min 0,000 mm 0,0 UV-I 0 W/m 0,3 C 3,8 C 3,2 km/h (1 Bft)
13.10.2015 21:05 3,7 C 78 % 1018,1 hPa 0,0 l/m 0,5 km/h (0 Bft) O-NO 74 0 min 0,026 mm 0,0 UV-I 0 W/m 0,2 C 3,7 C 8,0 km/h (2 Bft)
13.10.2015 21:10 3,7 C 78 % 1018,2 hPa 0,0 l/m 0,7 km/h (0 Bft) NO 36 0 min 0,000 mm 0,0 UV-I 0 W/m 0,2 C 3,7 C 4,8 km/h (1 Bft)
13.10.2015 21:15 3,7 C 78 % 1018,2 hPa 0,0 l/m 0,3 km/h (0 Bft) O 96 0 min 0,000 mm 0,0 UV-I 0 W/m 0,2 C 3,7 C 4,8 km/h (1 Bft)
13.10.2015 21:20 3,6 C 78 % 1018,2 hPa 0,2 l/m 0,4 km/h (0 Bft) O 93 0 min 0,000 mm 0,0 UV-I 0 W/m 0,1 C 3,6 C 8,0 km/h (2 Bft)
13.10.2015 21:25 3,6 C 78 % 1018,3 hPa 0,0 l/m 0,2 km/h (0 Bft) O-NO 75 0 min 0,000 mm 0,0 UV-I 0 W/m 0,1 C 3,6 C 3,2 km/h (1 Bft)
13.10.2015 21:30 3,5 C 78 % 1018,3 hPa 0,0 l/m 0,3 km/h (0 Bft) O-NO 75 0 min 0,000 mm 0,0 UV-I 0 W/m 0,0 C 3,5 C 3,2 km/h (1 Bft)
13.10.2015 21:35 3,4 C 78 % 1018,3 hPa 0,0 l/m 1,3 km/h (1 Bft) O-NO 63 0 min 0,000 mm 0,0 UV-I 0 W/m -0,1 C 3,4 C 4,8 km/h (1 Bft)
13.10.2015 21:40 3,4 C 78 % 1018,3 hPa 0,0 l/m 0,4 km/h (0 Bft) O 92 0 min 0,000 mm 0,0 UV-I 0 W/m -0,1 C 3,4 C 4,8 km/h (1 Bft)
13.10.2015 21:45 3,3 C 78 % 1018,3 hPa 0,0 l/m 0,2 km/h (0 Bft) O 80 0 min 0,000 mm 0,0 UV-I 0 W/m -0,2 C 3,3 C 3,2 km/h (1 Bft)
13.10.2015 21:50 3,3 C 78 % 1018,3 hPa 0,0 l/m 0,7 km/h (0 Bft) O 92 0 min 0,000 mm 0,0 UV-I 0 W/m -0,2 C 3,3 C 8,0 km/h (2 Bft)
13.10.2015 21:55 3,3 C 78 % 1018,3 hPa 0,0 l/m 0,0 km/h (0 Bft) O 92 0 min 0,000 mm 0,0 UV-I 0 W/m -0,2 C 3,3 C 0,0 km/h (0 Bft)
13.10.2015 22:00 3,3 C 78 % 1018,2 hPa 0,2 l/m 0,0 km/h (0 Bft) O 92 0 min 0,000 mm 0,0 UV-I 0 W/m -0,2 C 3,3 C 1,6 km/h (1 Bft)
13.10.2015 22:05 3,3 C 78 % 1018,3 hPa 0,0 l/m 0,0 km/h (0 Bft) O 92 0 min 0,000 mm 0,0 UV-I 0 W/m -0,2 C 3,3 C 0,0 km/h (0 Bft)
13.10.2015 22:10 3,2 C 78 % 1018,3 hPa 0,0 l/m 0,6 km/h (0 Bft) NO 34 0 min 0,000 mm 0,0 UV-I 0 W/m -0,3 C 3,2 C 4,8 km/h (1 Bft)
13.10.2015 22:15 3,2 C 78 % 1018,4 hPa 0,0 l/m 0,0 km/h (0 Bft) NO 34 0 min 0,000 mm 0,0 UV-I 0 W/m -0,3 C 3,2 C 0,0 km/h (0 Bft)
13.10.2015 22:20 3,2 C 78 % 1018,4 hPa 0,0 l/m 0,0 km/h (0 Bft) NO 34 0 min 0,000 mm 0,0 UV-I 0 W/m -0,3 C 3,2 C 1,6 km/h (1 Bft)
13.10.2015 22:25 3,1 C 78 % 1018,4 hPa 0,0 l/m 0,0 km/h (0 Bft) NO 34 0 min 0,000 mm 0,0 UV-I 0 W/m -0,4 C 3,1 C 0,0 km/h (0 Bft)
13.10.2015 22:30 3,1 C 78 % 1018,4 hPa 0,2 l/m 0,0 km/h (0 Bft) NO 34 0 min 0,000 mm 0,0 UV-I 0 W/m -0,4 C 3,1 C 0,0 km/h (0 Bft)
13.10.2015 22:35 3,0 C 78 % 1018,4 hPa 0,0 l/m 0,6 km/h (0 Bft) O-NO 60 0 min 0,000 mm 0,0 UV-I 0 W/m -0,5 C 3,0 C 4,8 km/h (1 Bft)
13.10.2015 22:40 2,9 C 78 % 1018,5 hPa 0,0 l/m 0,7 km/h (0 Bft) O-NO 61 0 min 0,000 mm 0,0 UV-I 0 W/m -0,5 C 2,9 C 3,2 km/h (1 Bft)
13.10.2015 22:45 2,9 C 78 % 1018,5 hPa 0,0 l/m 2,7 km/h (1 Bft) NO 45 0 min 0,000 mm 0,0 UV-I 0 W/m -0,5 C 2,9 C 11,3 km/h (2 Bft)
13.10.2015 22:50 2,8 C 78 % 1018,5 hPa 0,0 l/m 2,7 km/h (1 Bft) O-NO 67 0 min 0,000 mm 0,0 UV-I 0 W/m -0,6 C 2,8 C 8,0 km/h (2 Bft)
13.10.2015 22:55 2,8 C 78 % 1018,6 hPa 0,0 l/m 0,6 km/h (0 Bft) NO 41 0 min 0,000 mm 0,0 UV-I 0 W/m -0,6 C 2,8 C 4,8 km/h (1 Bft)
13.10.2015 23:00 2,8 C 78 % 1018,6 hPa 0,0 l/m 0,3 km/h (0 Bft) O-NO 71 0 min 0,000 mm 0,0 UV-I 0 W/m -0,6 C 2,8 C 3,2 km/h (1 Bft)
13.10.2015 23:05 2,7 C 78 % 1018,6 hPa 0,0 l/m 0,3 km/h (0 Bft) NO 34 0 min 0,000 mm 0,0 UV-I 0 W/m -0,7 C 2,7 C 3,2 km/h (1 Bft)
13.10.2015 23:10 2,6 C 78 % 1018,6 hPa 0,2 l/m 0,4 km/h (0 Bft) O-NO 60 0 min 0,000 mm 0,0 UV-I 0 W/m -0,8 C 2,6 C 8,0 km/h (2 Bft)
13.10.2015 23:15 2,5 C 78 % 1018,5 hPa 0,0 l/m 0,3 km/h (0 Bft) O-NO 60 0 min 0,000 mm 0,0 UV-I 0 W/m -0,9 C 2,5 C 3,2 km/h (1 Bft)
13.10.2015 23:20 2,6 C 78 % 1018,5 hPa 0,2 l/m 0,3 km/h (0 Bft) N 5 0 min 0,000 mm 0,0 UV-I 0 W/m -0,8 C 2,6 C 3,2 km/h (1 Bft)
13.10.2015 23:25 2,6 C 78 % 1018,4 hPa 0,0 l/m 1,0 km/h (0 Bft) O-NO 63 0 min 0,000 mm 0,0 UV-I 0 W/m -0,8 C 2,6 C 8,0 km/h (2 Bft)
13.10.2015 23:30 2,7 C 78 % 1018,4 hPa 0,0 l/m 0,8 km/h (0 Bft) NO 41 0 min 0,000 mm 0,0 UV-I 0 W/m -0,7 C 2,7 C 4,8 km/h (1 Bft)
13.10.2015 23:35 2,7 C 78 % 1018,4 hPa 0,0 l/m 0,0 km/h (0 Bft) NO 41 0 min 0,000 mm 0,0 UV-I 0 W/m -0,7 C 2,7 C 1,6 km/h (1 Bft)
13.10.2015 23:40 2,7 C 78 % 1018,4 hPa 0,0 l/m 0,9 km/h (0 Bft) O-NO 62 0 min 0,000 mm 0,0 UV-I 0 W/m -0,7 C 2,7 C 6,4 km/h (2 Bft)
13.10.2015 23:45 2,8 C 78 % 1018,4 hPa 0,0 l/m 0,0 km/h (0 Bft) O-NO 62 0 min 0,000 mm 0,0 UV-I 0 W/m -0,6 C 2,8 C 1,6 km/h (1 Bft)
13.10.2015 23:50 2,8 C 78 % 1018,4 hPa 0,0 l/m 0,8 km/h (0 Bft) NO 51 0 min 0,000 mm 0,0 UV-I 0 W/m -0,6 C 2,8 C 6,4 km/h (2 Bft)
13.10.2015 23:55 2,8 C 78 % 1018,4 hPa 0,0 l/m 0,0 km/h (0 Bft) NO 51 0 min 0,000 mm 0,0 UV-I 0 W/m -0,6 C 2,8 C 0,0 km/h (0 Bft)
_ Min-Zeit 07:20 15:00 05:40 - 00:10 - - - - - - 07:05 07:20 00:10
Minimum _ -1,9 C 75 % 1015,8 hPa - 0,0 km/h (0 Bft) - - - - - - -5,1 C -1,9 C 0,0 km/h (0 Bft)
_ Max-Zeit 15:00 01:25 22:55 10:15 13:05 - - 08:45 12:05 13:20 14:40 14:50 14:55 12:55
Maximum _ 6,5 C 79 % 1018,6 hPa 0,2 l/m 10,7 km/h
O-NO (2 Bft)
- - 5 min 0,102 mm 1,5 UV-I 337 W/m 2,6 C 6,4 C 24,1 km/h
O-NO (4 Bft)
Durchschnitt _ 2,5 C 78 % 1016,9 hPa #1,2 l/m 1,6 km/h (1 Bft) O-NO - #1:35 h #0,686 mm 0,9 UV-I 142 W/m -0,9 C 2,4 C 5,8 km/h (2 Bft)